Lexington Weather

Lexington, Massachusetts, USA

77°F
8/3/2020 10:44pm 
  • Lexington Conditions: Clear
  • Temperature: 76.8°F / 24.9°CColder 1.8°F than last hour.
  • Dew Point: 65.5°FDecreased 0.3°Fsince last hour.
  • Relative Humidity: 68%Increased 3.0% since last hour.
  • Wind: Calm, 10-min avg: Calm, gust: None
  • Barometer: 30.01 inRising 0.02  inHg/hr Rising Slowly
  • Visibility: 10 miles
  • Rain Today: 0.00 in
  •   
Southeast Middlesex County - Tropical Storm Warning - Tropical Cyclone Statement
 - SEE ALL NEARBY ALERTS -

Regional Weather Roundup
for Boston / Norton, MA

        
000
ASUS41 KBOX 291804
RWRBOX

REGIONAL WEATHER ROUNDUP
NATIONAL WEATHER SERVICE BOSTON/NORTON MA
200 PM EDT WED JUL 29 2020

NOTE:  "FAIR" INDICATES FEW OR NO CLOUDS BELOW 12,000 FEET WITH NO 
SIGNIFICANT WEATHER AND/OR OBSTRUCTIONS TO VISIBILITY.

MAZALL-291900-
EASTERN MASSACHUSETTS
  
CITY           SKY/WX    TMP DP  RH WIND       PRES   REMARKS
BOSTON         PTSUNNY   82  60  47 SE12      29.87F                  
6HR MIN TEMP:  75; 6HR MAX TEMP:  87;                                

BEVERLY        MOSUNNY   88  58  36 SW9       29.86F                  
LAWRENCE       MOSUNNY   89  61  38 W5        29.88F                  
BEDFORD        MOSUNNY   90  60  36 W9        29.86F                  
BLUE HILL      NOT AVBL                                               
NORWOOD        MOSUNNY   91  59  33 SW9G16    29.87F HX  90           
MARSHFIELD     PTSUNNY   88  63  42 SE9       29.88F                  
PLYMOUTH       PTSUNNY   87  64  46 S9        29.90F                  
TAUNTON        PTSUNNY   89  59  36 VRB5      29.89F                  
NEW BEDFORD    PTSUNNY   88  63  43 VRB7      29.90F                  
$$

MAZALL-291900-
CAPE COD AND THE ISLANDS
  
CITY           SKY/WX    TMP DP  RH WIND       PRES   REMARKS
FALMOUTH       SUNNY     84  61  45 SW8       29.91F                  
HYANNIS        CLOUDY    85  59  41 SW8       29.90F                  
CHATHAM        CLOUDY    82  63  52 SW7       29.92F                  
PROVINCETOWN   CLOUDY    84  63  49 SW8       29.91F                  
NANTUCKET      CLOUDY    78  66  66 S9        29.94R                  
MARTHAS VNYRD  CLOUDY    86  57  37 SW12      29.92S                  
$$
 
MAZALL-291900-
CENTRAL AND WESTERN MASSACHUSETTS
  
CITY           SKY/WX    TMP DP  RH WIND       PRES   REMARKS
WORCESTER      PTSUNNY   86  55  34 W14       29.92F                  
6HR MIN TEMP:  74; 6HR MAX TEMP:  88;                                

FITCHBURG      MOSUNNY   88  57  34 S9G20     29.89F                  
ORANGE         MOSUNNY   88  59  37 SW10      29.90F                  
SPRINGFIELD    MOSUNNY   90  58  33 W14G23    29.87F                  
WESTFIELD      MOSUNNY   91  59  33 SW15G21   29.88F HX  90           
NORTH ADAMS    MOSUNNY   86  56  35 SW9G16    29.90F                  
PITTSFIELD     SUNNY     85  59  41 W12       29.93F                  
$$
 
RIZALL-291900-
RHODE ISLAND
  
CITY           SKY/WX    TMP DP  RH WIND       PRES   REMARKS
PROVIDENCE     MOSUNNY   86  63  45 SE13G20   29.90F                  
6HR MIN TEMP:  73; 6HR MAX TEMP:  88;                                

NEWPORT        MOSUNNY   86  60  41 S9        29.92F                  
BLOCK ISLAND   SUNNY     82  62  50 SW12      29.94F                  
SMITHFIELD     MOSUNNY   84  65  52 VRB3      29.91F                  
WESTERLY       SUNNY     84  57  39 W10       29.93F                  
$$
 
CTZALL-291900-
CONNECTICUT
  
CITY           SKY/WX    TMP DP  RH WIND       PRES   REMARKS
BRADLEY INTL   MOSUNNY   89  59  36 SW15G21   29.87F                  
6HR MIN TEMP:  72; 6HR MAX TEMP:  92;                                

HARTFORD       MOSUNNY   89  59  36 S13G18    29.88F                  
BRIDGEPORT     SUNNY     87  64  46 S10       29.91F                  
DANBURY        MOSUNNY   86  61  42 SW12      29.93F                  
GROTON         SUNNY     83  61  47 S8        29.92F                  
NEW HAVEN      MOSUNNY   88  65  46 S9        29.92F HX  90           
CHESTER        NOT AVBL                                               
MERIDEN        MOSUNNY   87  61  41 S14       29.90F                  
WILLIMANTIC    SUNNY     87  60  40 S12G18    29.90F                  
OXFORD         PTSUNNY   86  68  54 S13G20    29.94F                  
$$

MEZ002-015-021-024-NHZ003-005-008-011-012-014-VTZ005-008-291900-
NORTHERN NEW ENGLAND
  
CITY           SKY/WX    TMP DP  RH WIND       PRES   REMARKS
PORTLAND ME    MOSUNNY   87  59  38 S10       29.86F                  
6HR MIN TEMP:  77; 6HR MAX TEMP:  88;                                

BANGOR ME      MOSUNNY   87  57  35 VRB7      29.84F                  
CONCORD NH     MOSUNNY   89  57  33 W14G22    29.87F                  
MANCHESTER NH  MOSUNNY   90  57  32 W9        29.86F                  
NASHUA NH      PTSUNNY   88  59  37 W9        29.87F                  
PORTSMOUTH NH  MOSUNNY   89  54  30 W7        29.85F                  
JAFFREY NH     SUNNY     84  58  40 S10       29.93F                  
KEENE NH       MOSUNNY   86  62  44 SW12      29.88F                  
BURLINGTON VT  CLOUDY    80  66  62 S3        29.82F                  
MT. WASHINGTON PTSUNNY   61  55  82 W18G26      N/A                   
$$

NYZ052-076-291900-
EASTERN NEW YORK
  
CITY           SKY/WX    TMP DP  RH WIND       PRES   REMARKS
ALBANY         PTSUNNY   85  61  44 VRB5      29.88F                  
6HR MIN TEMP:  66; 6HR MAX TEMP:  85;                                

NEW YORK CITY  MOSUNNY   87  68  52 S18       29.90F HX  90           
6HR MIN TEMP:  80; 6HR MAX TEMP:  89;                                

$$
 
ANZALL-291900-
MARINE OBSERVATIONS
  
STATION/POSITION TIME  TEMP    WIND        PRES    VSBY  WAVE
                       AIR SEA DIR/SP/G                  HT/PER
                 (UTC) (F)     (DEG/KT/KT) (MB)    (MI)  (FT/S)
BOSTON BUOY      NOT AVBL
BUZZARDS BAY     1700          210/  8/  9 1014.3F
NANTUCKET SOUND  NOT AVBL
MASS BAY-STELLWA 1704   75     210/  8/  8 1010.4F  1 7/8  1/ 6
ISLE OF SHOALS   1700   79     180/ 11/ 12 1011.6F
S OF BLOCK IS    1726      77                N/A           3/ 7
$$

......................KEY.........................
  SKY/WX - SKY CONDITION/PRESENT WEATHER
  TMP    - TEMPERATURE IN FAHRENHEIT
  DWPT   - DEWPOINT IN FAHRENHEIT
  RH     - RELATIVE HUMIDITY IN PERCENT
  WIND   - DIRECTION AND SPEED IN MPH
  PRES   - MEAN SEA LEVEL PRESSURE IN INCHES OF HG
  WCI    - WIND CHILL INDEX
  VSB    - VISIBILITY IN MILES
  HX     - HEAT INDEX
  TC     - TEMPERATURE IN CELSIUS
  VRB    - VARIABLE WIND DIRECTION
  N/A    - NOT AVAILABLE
  
      

Other recent Regional Weather Roundups

Mon Aug 3, 10:04pm

Mon Aug 3, 9:04pm

Mon Aug 3, 8:05pm

Mon Aug 3, 7:04pm

Mon Aug 3, 6:04pm

Mon Aug 3, 5:04pm

Mon Aug 3, 4:05pm

Mon Aug 3, 3:04pm

Mon Aug 3, 2:04pm

Mon Aug 3, 1:04pm

Mon Aug 3, 12:05pm

Mon Aug 3, 11:04am

Mon Aug 3, 10:04am

Mon Aug 3, 9:05am

Mon Aug 3, 8:04am

Mon Aug 3, 7:04am

Mon Aug 3, 6:04am

Mon Aug 3, 5:04am

Mon Aug 3, 4:04am

Mon Aug 3, 3:04am

Mon Aug 3, 2:04am

Mon Aug 3, 1:04am

Mon Aug 3, 12:05am

Sun Aug 2, 11:04pm

Sun Aug 2, 10:04pm

Sun Aug 2, 9:04pm

Sun Aug 2, 8:04pm

Sun Aug 2, 7:04pm

Sun Aug 2, 6:04pm

Sun Aug 2, 5:04pm

Sun Aug 2, 4:05pm

Sun Aug 2, 3:04pm

Sun Aug 2, 2:05pm

Sun Aug 2, 1:04pm

Sun Aug 2, 12:04pm

Sun Aug 2, 11:04am

Sun Aug 2, 10:04am

Sun Aug 2, 9:05am

Sun Aug 2, 8:05am

Sun Aug 2, 7:04am

Sun Aug 2, 6:04am

Sun Aug 2, 5:04am

Sun Aug 2, 4:05am

Sun Aug 2, 3:04am

Sun Aug 2, 2:04am

Sun Aug 2, 1:04am

Sun Aug 2, 12:05am

Sat Aug 1, 11:04pm

Sat Aug 1, 10:04pm

Sat Aug 1, 9:04pm

Sat Aug 1, 8:05pm

Sat Aug 1, 7:04pm

Sat Aug 1, 6:04pm

Sat Aug 1, 5:05pm

Sat Aug 1, 4:05pm

Sat Aug 1, 3:04pm

Sat Aug 1, 2:04pm

Sat Aug 1, 1:04pm

Sat Aug 1, 12:04pm

Sat Aug 1, 11:05am

Sat Aug 1, 10:05am

Sat Aug 1, 9:04am

Sat Aug 1, 8:04am

Sat Aug 1, 7:04am

Sat Aug 1, 6:04am

Sat Aug 1, 5:04am

Sat Aug 1, 4:05am

Sat Aug 1, 3:04am

Sat Aug 1, 2:04am

Sat Aug 1, 1:04am

Sat Aug 1, 12:05am

Fri Jul 31, 11:05pm

Fri Jul 31, 10:04pm

Fri Jul 31, 9:04pm

Fri Jul 31, 8:05pm

Fri Jul 31, 7:05pm

Fri Jul 31, 6:04pm

Fri Jul 31, 5:04pm

Fri Jul 31, 4:05pm

Fri Jul 31, 3:04pm

Fri Jul 31, 2:05pm

Fri Jul 31, 1:04pm

Fri Jul 31, 12:04pm

Fri Jul 31, 11:04am

Fri Jul 31, 10:04am

Fri Jul 31, 9:04am

Fri Jul 31, 8:04am

Fri Jul 31, 7:04am

Fri Jul 31, 6:04am

Fri Jul 31, 5:04am

Fri Jul 31, 4:04am

Fri Jul 31, 3:04am

Fri Jul 31, 2:04am

Fri Jul 31, 1:05am

Fri Jul 31, 12:04am

Thu Jul 30, 11:04pm

Thu Jul 30, 10:04pm

Thu Jul 30, 9:04pm

Thu Jul 30, 8:04pm

Thu Jul 30, 7:05pm

Thu Jul 30, 6:04pm

Thu Jul 30, 5:04pm

Thu Jul 30, 4:05pm

Thu Jul 30, 3:04pm

Thu Jul 30, 2:05pm

Thu Jul 30, 1:04pm

Thu Jul 30, 12:04pm

Thu Jul 30, 11:04am

Thu Jul 30, 10:05am

Thu Jul 30, 9:04am

Thu Jul 30, 8:04am

Thu Jul 30, 7:04am

Thu Jul 30, 6:04am

Thu Jul 30, 5:04am

Thu Jul 30, 4:04am

Thu Jul 30, 3:04am

Thu Jul 30, 2:04am

Thu Jul 30, 1:04am

Thu Jul 30, 12:04am

Wed Jul 29, 11:04pm

Wed Jul 29, 10:04pm

Wed Jul 29, 9:04pm

Wed Jul 29, 8:04pm

Wed Jul 29, 7:05pm

Wed Jul 29, 6:05pm

Wed Jul 29, 5:04pm

Wed Jul 29, 4:04pm

Wed Jul 29, 3:04pm

Wed Jul 29, 1:05pm

Wed Jul 29, 12:05pm

Wed Jul 29, 11:04am

Wed Jul 29, 10:04am

Wed Jul 29, 9:04am

Wed Jul 29, 8:04am

Wed Jul 29, 7:04am

Wed Jul 29, 6:04am

Wed Jul 29, 5:04am

Wed Jul 29, 4:04am

Wed Jul 29, 3:04am

Wed Jul 29, 2:04am

Wed Jul 29, 1:04am

Wed Jul 29, 12:05am

Tue Jul 28, 11:05pm

Tue Jul 28, 10:05pm

Tue Jul 28, 9:04pm

Tue Jul 28, 8:04pm

Tue Jul 28, 7:04pm

Tue Jul 28, 6:04pm

Tue Jul 28, 5:04pm

Tue Jul 28, 4:05pm

Tue Jul 28, 3:05pm

Tue Jul 28, 2:04pm

Tue Jul 28, 1:05pm

Tue Jul 28, 12:04pm

Tue Jul 28, 11:04am

Tue Jul 28, 10:04am

Tue Jul 28, 9:04am

Tue Jul 28, 8:04am

Tue Jul 28, 7:04am

Tue Jul 28, 6:04am

Tue Jul 28, 5:04am

Tue Jul 28, 4:04am

Tue Jul 28, 3:04am

Tue Jul 28, 2:04am

Tue Jul 28, 1:04am

Tue Jul 28, 12:05am

Mon Jul 27, 11:04pm

Meta data:

ID: 0fced569-4879-49d3-8ea7-0a09344ae1c5
Link: https://api.weather.gov/products/0fced569-4879-49d3-8ea7-0a09344ae1c5